Location: Asheville, NC
(35.6000°N, 82.5500°W)
Time: 11:45:15
(UTC-04:00)

KAITUO 1B - Pass Details

Date: 10 January 2018
Orbit: 499 x 520 km, 97.5° (Epoch: 23 June)

Event Time Altitude Azimuth Distance (km) Brightness Sun altitude
Rises 18:33:41 0° 186° (S) 2,632 ? -11.7°
Reaches altitude 10° 18:35:54 10° 196° (SSW) 1,749 ? -12.1°
Maximum altitude 18:39:22 34° 262° (W) 873 ? -12.8°
Drops below altitude 10° 18:42:51 10° 329° (NNW) 1,759 ? -13.5°
Sets 18:45:06 0° 338° (NNW) 2,650 ? -13.9°
